Wind_Speed
9 9 10 11 11 11 10 10 9 9 10 10 10 10 10 9 9 10 11 12 12 12 12 12 12 13 15 17 16 15 14 14 16 19 18 16 17 18 20 21 19 18 18 18 18 18 18 19 20 19 19 19 19 20 21 21 20 20 21 22 23 24 25 26 27 29 30 32 33 34 37 40 41 40
10 10 10 11 11 10 10 9 9 10 12 11 11 10 10 9 10 11 12 13 12 12 13 13 13 15 16 17 16 16 16 15 17 19 19 17 17 18 19 21 21 20 19 19 19 19 18 19 19 20 21 21 20 20 20 20 20 20 21 21 22 23 24 25 26 27 29 31 33 34 35 37 40 42
11 11 11 12 12 11 11 11 10 11 12 11 11 11 9 9 11 12 13 14 13 12 13 14 15 15 16 16 17 18 18 17 17 19 20 20 20 20 20 21 23 22 20 20 20 20 19 18 19 20 22 23 23 22 21 21 21 21 21 21 21 21 22 23 24 25 27 29 31 34 36 36 37 40
12 12 12 13 12 11 12 12 12 13 12 11 11 10 10 10 11 12 13 14 16 15 13 14 14 15 16 16 17 20 21 20 18 19 20 21 22 23 23 22 23 23 23 22 22 22 22 20 20 20 22 23 24 24 22 22 23 23 23 23 22 21 21 21 22 24 25 27 29 31 34 37 38 39
13 13 14 14 14 13 12 13 14 14 11 10 10 11 12 12 11 12 13 14 16 16 15 15 15 14 16 16 16 18 20 21 20 20 20 21 21 23 24 24 23 23 25 26 24 24 24 23 22 22 22 23 24 24 25 25 26 25 25 24 23 22 21 22 23 24 26 27 29 30 32 34 37 39
14 14 15 15 13 13 13 14 15 13 10 10 10 12 13 13 12 13 15 16 18 17 17 17 16 15 16 17 16 16 18 19 20 21 22 22 22 21 22 22 21 21 23 25 25 25 25 26 26 25 25 26 27 27 29 30 29 26 25 24 23 23 23 24 24 25 26 28 30 32 33 33 35 38
14 15 15 14 13 13 13 14 15 12 11 12 13 14 14 14 13 14 15 17 18 18 19 19 18 18 19 19 19 18 19 19 19 21 22 23 23 22 22 22 21 21 22 24 26 26 26 27 28 28 29 32 32 31 31 32 29 26 25 25 26 27 27 26 26 25 27 28 30 33 34 35 35 36
15 16 15 14 14 14 14 14 14 13 12 14 15 15 15 15 14 14 17 18 18 20 22 22 19 20 22 23 21 20 21 20 20 21 21 22 23 24 23 21 22 23 24 26 28 27 27 27 29 31 34 35 34 31 31 31 28 27 29 31 31 31 30 30 28 28 28 29 29 32 35 36 36 36
15 16 16 15 14 14 15 14 14 15 14 15 15 16 16 16 16 17 19 19 18 20 23 24 23 22 22 22 22 22 23 24 22 22 22 22 24 24 23 21 22 23 25 27 27 27 28 28 30 32 34 35 34 32 30 30 30 32 34 34 32 31 32 32 30 28 27 27 28 30 34 36 38 38
17 17 16 16 15 15 15 15 16 16 15 15 16 17 18 19 19 19 19 18 18 19 21 24 25 23 21 22 25 25 25 25 24 23 24 24 24 24 23 22 22 22 23 25 27 28 28 28 30 33 34 34 32 30 30 32 34 35 34 32 31 30 30 30 29 27 27 29 31 32 33 36 38 40
17 16 15 15 16 15 15 16 17 17 17 18 20 20 20 21 20 19 18 18 18 19 21 24 26 24 23 25 28 27 25 24 23 23 24 25 25 24 23 23 23 24 25 27 28 29 29 29 30 31 31 32 31 31 33 36 36 35 32 30 29 27 25 26 28 30 33 36 37 38 38 38 39 40
17 15 15 16 16 16 16 18 19 18 19 22 22 21 20 20 20 20 21 21 20 21 23 25 26 26 26 27 27 26 24 24 23 23 23 25 25 24 24 24 26 27 27 27 27 27 27 28 29 30 32 32 32 33 35 36 35 33 30 28 26 24 24 25 29 35 39 41 42 43 43 42 41 42
16 15 16 17 17 17 18 20 20 19 20 23 23 22 21 22 24 26 25 24 24 25 26 27 27 28 28 26 24 23 23 24 25 25 25 26 26 26 27 27 28 28 28 27 26 26 27 28 29 32 34 33 32 33 33 33 33 30 28 28 27 27 28 30 34 39 43 46 47 48 49 47 45 43
16 16 17 17 18 20 20 19 19 20 22 24 23 23 23 24 28 29 26 25 27 27 27 28 28 29 28 26 23 22 23 24 25 25 25 26 27 28 29 30 30 29 27 26 28 29 29 29 31 32 33 33 33 32 30 30 31 30 30 30 30 31 32 34 38 42 45 48 50 51 51 50 47 45
16 18 19 20 21 22 21 20 20 22 24 25 25 24 23 24 26 27 26 27 28 28 28 29 29 29 30 28 25 24 24 24 25 25 26 27 29 29 29 30 31 31 29 30 33 34 32 32 33 33 32 33 32 30 29 31 31 32 32 31 32 36 38 39 43 46 48 50 51 52 50 48 47 46
18 19 20 21 22 23 22 23 24 24 25 25 25 24 24 24 24 25 27 29 28 27 28 30 30 31 32 30 27 25 24 24 26 27 28 29 30 30 30 33 35 35 34 35 38 38 35 32 32 32 31 32 32 30 30 32 33 33 33 34 38 43 44 46 50 51 50 49 49 49 47 46 46 45
19 20 20 22 25 25 24 24 24 24 25 25 25 26 27 26 22 21 24 28 28 28 29 31 32 31 31 29 27 26 25 26 28 28 29 30 32 33 35 38 39 39 37 36 37 37 35 31 30 31 31 32 32 32 33 35 36 36 37 40 44 47 48 51 52 50 47 44 43 44 44 45 47 46
21 22 22 24 25 24 22 23 24 25 26 26 27 28 27 22 19 18 21 25 27 26 26 28 29 28 27 25 24 25 27 29 31 32 34 36 37 39 39 38 38 37 34 30 31 34 34 30 30 32 33 33 34 34 36 37 37 37 38 41 45 47 50 52 51 48 45 41 40 41 42 44 45 45
22 24 24 23 22 21 22 26 28 28 27 28 29 28 23 19 19 20 20 22 24 23 23 25 25 23 22 22 25 29 31 34 36 37 37 35 32 31 31 30 29 29 26 24 27 33 34 30 31 35 35 35 35 36 38 39 38 38 39 42 45 49 52 51 49 46 42 38 37 39 40 42 43 44
23 26 24 22 24 24 25 28 29 29 30 31 31 26 20 19 20 20 20 21 23 23 23 25 26 27 28 30 32 33 33 33 33 31 28 25 22 23 26 26 24 24 24 23 27 33 33 31 32 36 35 35 37 40 40 38 36 36 39 44 48 52 52 50 47 43 38 34 35 37 38 40 41 42
24 25 25 25 28 28 25 25 28 29 28 26 23 20 18 19 19 19 20 21 22 22 23 24 26 29 30 31 31 31 28 25 22 21 22 21 20 22 26 27 25 25 26 26 27 31 33 30 30 34 36 36 39 41 39 36 36 39 44 49 51 51 51 50 47 41 37 35 35 36 37 38 38 39
23 25 26 28 30 29 25 24 24 23 21 19 17 17 18 18 18 18 19 19 19 21 22 23 24 26 29 31 31 28 23 17 14 17 22 23 21 21 24 26 27 28 28 26 25 28 31 29 29 33 36 36 37 38 38 39 43 47 50 52 52 50 51 51 47 41 37 36 36 36 37 37 36 36
22 24 25 25 25 23 20 19 18 17 18 18 17 17 16 17 19 20 21 21 22 23 24 25 26 29 30 29 26 21 18 17 17 20 24 24 22 23 24 26 28 29 28 25 23 26 30 31 31 33 34 36 38 39 41 46 50 51 51 52 52 51 50 49 45 38 34 33 33 34 34 35 34 35
21 21 20 18 17 16 16 15 15 17 18 18 17 17 16 17 19 21 22 23 24 25 26 27 28 27 23 19 16 16 17 19 20 21 23 23 22 24 25 26 26 28 28 25 25 27 30 32 33 33 32 35 38 41 45 49 51 51 51 52 52 53 50 48 44 39 34 33 32 31 31 32 33 35
19 16 15 13 12 13 14 14 16 17 18 17 17 18 17 18 19 21 22 23 24 25 24 23 21 19 17 16 16 16 18 19 20 20 20 19 20 22 24 25 26 28 30 29 28 29 31 32 34 36 34 34 37 42 48 52 52 52 52 51 51 51 48 45 43 39 35 34 34 32 31 30 33 36
16 13 12 12 11 12 14 15 17 17 17 17 16 16 17 19 20 21 22 23 24 22 18 16 15 15 15 15 16 17 19 19 18 17 18 19 22 23 24 25 27 29 31 31 29 29 31 32 33 36 38 38 40 44 49 53 54 53 50 48 48 48 44 42 40 36 33 33 33 32 31 30 31 35
13 12 12 12 11 13 15 16 17 17 16 16 16 16 18 19 19 20 21 20 18 15 13 14 15 15 15 16 17 18 18 17 17 19 22 23 23 23 23 23 24 26 29 29 28 27 28 30 31 33 37 39 41 45 49 52 53 51 48 48 47 44 40 37 35 33 32 31 30 29 29 29 30 33
11 12 12 12 13 14 16 16 16 16 17 16 16 16 16 17 17 18 17 14 12 13 15 15 16 16 17 17 17 17 17 18 21 23 23 21 20 20 21 21 23 25 26 26 26 26 26 28 28 30 35 38 41 45 48 51 51 47 45 46 45 41 35 31 29 29 29 28 27 27 28 30 29 30
10 10 11 12 14 15 16 16 16 17 18 17 16 14 14 14 14 12 12 12 12 14 14 14 15 16 16 15 16 17 19 21 22 21 19 19 19 20 20 21 22 23 22 23 25 25 25 26 27 29 34 38 40 42 45 48 49 44 40 41 44 39 32 27 26 25 26 26 26 25 27 31 30 30
9 11 12 13 14 14 15 15 16 16 15 15 15 13 12 12 10 8 9 12 13 14 13 14 14 14 14 16 17 19 20 19 18 17 17 19 20 19 19 20 21 21 21 22 22 22 21 22 25 29 33 36 38 40 42 46 47 41 35 37 42 39 33 28 26 26 27 28 28 26 27 30 31 30
10 11 12 13 14 15 15 14 13 12 12 13 15 13 12 12 10 9 12 13 13 13 13 13 13 14 16 17 17 17 16 16 16 16 17 18 19 18 19 20 21 21 22 22 20 19 18 20 23 28 31 34 37 37 38 40 41 37 34 36 39 37 34 31 29 28 27 26 27 26 24 25 28 30
12 12 13 15 15 14 11 9 9 11 11 11 11 11 10 10 11 14 16 15 14 14 12 12 14 16 17 16 15 15 15 15 15 16 17 18 19 18 18 19 20 22 23 21 18 17 17 18 22 26 29 33 35 36 37 38 35 33 34 36 36 35 35 33 30 28 23 21 24 23 21 24 27 27
11 11 13 15 13 9 7 7 10 12 11 10 10 11 11 12 13 14 15 14 14 12 12 14 16 16 15 14 14 14 15 15 15 16 17 18 18 18 17 18 19 22 23 21 19 17 17 18 23 26 28 31 32 32 35 37 36 33 33 34 34 35 36 34 31 28 22 20 23 22 21 27 28 27
9 8 10 11 10 9 10 11 12 12 12 12 12 13 14 14 14 14 14 13 12 11 13 16 16 14 13 14 14 14 15 16 16 16 17 17 17 17 17 18 19 22 23 22 22 20 18 19 24 27 28 30 31 31 32 34 35 34 32 32 33 33 34 34 32 30 24 21 22 21 22 26 27 26
9 9 10 11 10 10 10 12 12 12 12 12 12 13 14 14 14 14 12 11 13 15 17 15 13 12 13 13 13 14 15 16 16 16 16 16 16 16 17 18 20 22 23 24 24 23 21 21 24 29 32 33 34 34 33 32 33 33 32 33 33 32 32 33 33 31 26 20 18 19 22 25 25 24
10 9 11 11 10 10 11 13 13 12 11 12 12 13 14 15 14 11 11 15 19 19 16 12 11 12 12 12 13 15 15 16 16 16 16 16 16 17 17 18 19 21 23 24 24 25 25 23 23 28 33 35 35 36 35 33 31 32 33 34 34 32 32 34 32 28 24 19 16 15 19 23 23 23
7 9 12 13 11 11 12 13 12 11 11 12 13 13 13 14 13 11 13 18 19 15 11 10 11 11 11 12 13 14 14 15 15 16 16 16 16 17 18 18 19 21 22 23 24 24 25 25 23 24 29 32 33 35 36 34 31 30 31 33 33 32 31 32 32 29 23 18 15 15 17 21 23 24
10 12 14 13 12 12 13 12 12 11 12 13 14 13 13 13 13 12 13 15 14 11 10 11 11 11 11 12 13 14 14 15 15 16 16 16 16 17 18 19 20 21 21 23 24 24 23 24 23 21 23 27 30 32 33 34 34 32 29 29 30 31 30 30 31 31 26 20 16 15 17 21 24 25
13 13 13 12 11 11 12 12 11 11 12 13 14 13 13 14 13 13 13 12 11 10 11 11 10 11 12 12 12 13 14 15 15 16 16 16 17 18 18 19 20 21 21 22 24 24 24 24 24 20 19 22 25 26 28 31 32 32 29 27 27 29 30 30 30 30 30 26 21 17 17 17 19 22
7 8 10 11 11 10 10 11 12 12 13 13 12 11 13 15 15 14 12 11 11 12 11 10 10 11 11 12 12 13 14 15 15 15 16 16 17 17 18 19 20 21 21 22 23 24 24 24 22 18 16 18 20 21 23 27 29 31 32 30 27 25 27 29 29 29 30 30 26 22 19 17 16 17
8 8 9 10 10 10 10 11 11 12 13 14 12 11 15 17 16 14 13 12 13 13 11 10 10 10 11 11 12 13 14 15 15 15 16 17 17 17 18 19 19 19 20 22 23 23 23 21 17 13 13 15 18 21 24 27 30 32 34 34 31 26 23 24 25 25 27 29 28 25 21 18 16 16
10 11 10 10 10 10 10 10 11 12 14 14 12 12 14 16 15 14 13 12 11 11 9 9 9 10 10 11 11 12 14 14 15 16 16 16 17 18 18 18 18 18 20 21 21 22 23 19 14 11 13 16 19 22 24 26 27 29 32 34 34 31 26 22 21 21 22 25 27 25 22 18 16 16
10 11 10 10 10 10 10 11 12 13 13 13 12 13 15 15 14 13 11 9 8 8 9 9 9 10 10 11 12 12 13 14 15 16 16 16 17 18 18 18 18 18 19 20 20 22 23 20 14 13 14 15 18 21 23 24 25 28 30 34 37 36 32 26 21 18 17 21 24 24 22 19 17 18
10 10 10 10 10 11 11 11 11 11 11 12 13 14 14 13 11 10 10 9 9 9 9 9 9 9 10 11 12 12 13 14 15 16 16 16 17 17 17 18 18 17 18 19 19 21 23 21 19 18 17 15 17 20 21 22 24 27 30 33 37 39 38 33 26 21 17 19 23 25 24 21 17 18
10 10 11 11 11 11 11 11 11 11 12 13 14 13 12 11 10 9 9 9 9 9 9 9 9 9 10 11 12 12 13 14 15 15 15 16 16 16 16 17 17 17 17 18 20 21 21 20 21 20 17 15 16 18 19 21 24 27 29 32 35 38 40 39 34 27 21 20 24 27 26 25 21 15
Wind_Direction
247 254 260 265 268 267 262 264 269 268 268 274 280 280 280 283 284 290 294 293 297 300 297 297 294 290 291 295 298 296 285 274 277 291 299 297 293 291 294 300 301 298 296 295 292 289 284 282 283 283 284 283 285 288 290 292 292 292 291 290 287 283 278 274 270 266 265 265 264 262 260 257 255 253
254 253 252 255 264 270 269 269 267 265 272 280 283 281 282 283 283 287 291 289 292 298 298 299 297 296 300 301 298 294 287 283 285 290 296 297 293 288 290 295 295 294 296 294 292 289 285 283 283 284 285 284 284 285 285 286 287 288 289 290 289 288 286 283 278 273 268 264 263 262 261 259 256 254
268 265 262 258 258 259 260 261 259 262 268 272 273 277 283 285 284 288 291 290 294 300 298 297 296 294 293 292 288 286 288 288 279 279 290 297 296 292 291 290 290 292 295 296 294 292 288 287 288 290 290 287 285 283 281 281 281 282 284 286 287 287 286 286 285 282 278 272 267 263 261 260 258 255
257 259 259 260 261 261 260 260 261 264 265 268 270 272 278 278 278 286 290 291 299 305 300 294 294 292 289 288 285 287 294 298 288 282 286 289 291 295 296 294 293 294 298 300 298 297 294 293 295 296 295 294 292 287 285 285 283 280 280 282 282 281 280 280 281 282 281 279 274 269 264 261 258 257
246 248 250 255 258 260 261 261 266 268 268 276 280 278 283 285 282 287 291 289 294 302 304 301 298 292 288 287 284 285 291 298 298 293 287 283 284 288 291 294 294 294 298 300 298 295 293 294 297 297 297 298 297 291 288 291 291 285 279 278 279 279 281 282 281 280 279 279 278 274 269 264 260 257
245 244 244 249 253 257 260 261 266 268 262 267 271 270 279 284 280 285 292 292 292 295 300 303 300 295 292 288 283 283 285 288 292 291 287 286 284 281 282 284 283 283 288 290 289 289 291 294 296 298 300 303 302 297 293 292 293 288 281 279 281 281 284 286 286 283 282 279 277 275 272 268 263 259
244 245 245 248 250 252 255 259 267 267 255 256 263 266 270 274 277 282 285 287 289 290 294 299 298 298 301 297 288 284 285 285 285 286 287 287 285 286 287 282 277 274 273 274 278 284 291 295 295 297 302 305 304 300 298 296 292 288 287 290 292 290 289 289 288 287 288 286 278 272 270 269 266 261
241 245 247 249 249 251 253 256 261 259 254 261 271 278 277 272 277 284 281 281 284 285 290 295 296 300 305 304 299 294 291 289 288 288 289 286 285 290 292 285 280 279 278 279 282 286 291 293 294 297 301 303 301 298 297 295 290 291 297 299 298 295 293 292 290 287 289 290 283 272 266 265 265 263
238 241 245 249 251 254 256 257 258 257 260 268 275 285 285 276 281 291 290 288 288 287 288 289 292 297 300 299 301 302 299 295 291 290 290 288 287 289 288 284 282 282 283 284 286 287 290 291 293 297 298 299 298 296 294 291 289 295 300 299 296 296 295 292 289 287 288 291 290 282 271 264 261 260
241 242 246 251 252 252 256 260 263 264 268 271 272 279 281 278 284 294 294 294 296 297 297 296 296 296 294 296 302 304 303 298 293 293 294 295 295 294 293 291 289 286 283 283 284 286 286 286 289 292 293 294 294 292 291 293 295 298 298 296 294 294 294 291 288 289 293 294 295 293 285 275 266 260
245 249 254 258 259 261 266 266 267 269 271 271 273 277 278 279 287 294 295 297 297 297 301 304 301 293 290 296 302 303 302 297 292 293 296 298 300 300 296 292 290 289 287 284 284 286 285 285 286 287 289 291 289 287 291 296 298 297 296 294 294 292 290 290 289 291 295 295 293 294 292 285 276 267
243 247 251 254 257 263 266 264 265 267 267 271 278 283 281 281 285 289 292 294 292 293 298 302 298 292 289 293 299 302 300 295 293 294 294 295 297 295 291 289 290 293 292 285 282 282 282 284 283 283 285 285 282 285 291 293 292 294 295 294 292 290 286 285 287 289 291 292 290 290 291 287 281 273
244 243 248 253 256 257 258 260 261 262 265 272 280 281 279 281 284 286 288 287 287 291 296 297 294 292 290 291 296 299 296 292 292 294 296 295 294 293 293 294 296 297 293 286 281 280 280 280 280 281 284 283 282 286 289 288 287 290 291 288 285 283 281 281 283 285 286 288 288 288 289 286 280 275
248 246 247 251 255 259 265 271 270 266 267 272 277 276 277 281 283 284 283 280 280 286 291 292 291 289 287 288 290 291 290 291 292 293 295 295 295 296 297 298 299 299 295 288 285 285 284 283 282 282 284 285 285 284 283 282 281 282 282 281 280 277 276 279 284 285 287 288 286 285 286 283 278 274
251 250 248 250 257 263 271 277 278 277 277 279 280 278 277 280 280 277 272 268 272 281 287 287 285 283 283 285 286 286 288 290 290 292 294 295 296 297 297 297 298 299 297 293 291 290 288 285 285 285 285 286 285 281 280 282 284 286 287 283 280 278 276 281 289 290 290 289 286 283 282 279 275 270
247 250 254 258 263 267 272 278 283 287 288 288 286 284 284 286 284 276 266 263 270 279 283 281 280 280 282 284 286 287 288 288 290 292 295 296 295 295 295 295 295 296 295 294 292 290 288 286 287 286 285 285 284 283 285 287 288 291 289 282 279 278 278 285 294 295 292 289 284 280 276 274 272 266
247 252 258 260 263 266 271 278 284 289 290 289 290 292 294 293 289 280 271 268 273 278 278 277 278 279 279 280 283 283 284 289 292 294 294 294 292 290 291 291 291 291 291 291 290 289 288 289 288 286 285 285 286 286 287 288 287 286 282 279 280 282 285 292 298 297 292 286 281 277 273 271 269 263
253 257 260 262 265 269 273 278 285 289 290 290 292 295 294 291 289 287 278 271 272 275 275 275 277 276 277 281 282 280 283 290 293 291 291 291 289 288 288 287 289 291 293 292 290 289 291 294 290 287 287 287 288 288 287 288 288 285 282 282 286 291 296 298 299 298 293 283 277 275 271 267 266 262
257 258 259 264 270 275 280 285 288 288 289 291 293 292 288 284 289 291 283 273 273 277 279 279 278 277 279 282 281 281 284 288 288 289 289 289 288 288 288 289 291 294 295 293 289 287 290 294 290 287 288 288 288 288 289 290 290 286 286 289 294 298 300 300 299 297 291 281 275 272 267 264 264 261
257 259 264 273 283 286 285 286 287 287 290 292 291 289 286 285 287 287 281 274 273 275 277 277 275 275 276 277 279 283 286 285 285 287 287 287 287 287 289 289 290 291 292 291 289 288 290 293 290 288 289 289 289 291 291 293 293 290 289 294 299 301 301 301 301 296 288 281 277 270 266 265 264 262
262 268 273 281 287 286 281 282 286 289 292 293 290 288 287 282 279 278 278 280 281 281 280 278 276 274 276 280 286 289 289 288 289 288 290 296 295 287 287 289 289 291 292 291 291 290 291 293 292 291 291 290 291 292 293 293 294 294 296 299 303 304 302 302 302 297 289 286 282 273 266 265 265 263
268 275 278 279 281 280 279 282 285 287 290 292 290 287 283 279 277 279 282 284 284 284 283 281 280 279 282 288 292 292 292 296 300 294 295 301 298 288 287 290 292 294 292 291 293 293 292 294 294 295 295 293 291 292 295 298 300 303 305 306 306 305 304 303 303 299 291 286 282 276 268 264 264 262
269 272 274 275 277 279 279 280 281 285 290 292 290 284 279 278 280 280 278 276 276 278 279 279 281 283 286 288 290 290 293 303 307 302 300 300 295 291 291 290 291 293 291 291 296 295 294 296 296 295 295 294 295 298 303 306 307 309 310 310 308 307 306 304 303 300 294 285 279 274 269 264 261 258
265 265 266 272 279 282 279 277 281 287 290 290 287 280 274 275 277 277 277 278 280 282 282 282 286 289 291 291 289 289 292 297 300 298 297 295 290 289 290 289 289 289 288 290 294 295 296 296 294 293 292 292 297 305 309 309 310 311 312 311 309 309 307 305 302 299 293 287 279 273 270 265 258 253
261 260 263 269 276 278 279 283 287 290 291 290 284 277 274 277 280 283 285 285 286 287 288 291 296 296 295 292 290 291 291 289 288 287 286 286 284 285 288 289 289 287 285 288 290 292 295 295 293 295 296 294 299 308 311 311 311 312 312 311 310 310 307 302 298 293 287 283 279 272 271 269 259 250
256 252 256 262 271 279 285 290 292 293 293 290 286 283 284 285 285 287 288 288 290 292 292 294 293 289 290 293 292 291 290 288 287 285 281 281 282 284 285 285 285 285 286 290 293 293 294 295 296 299 298 297 302 309 311 311 313 315 314 312 313 311 304 296 294 291 285 281 278 271 270 272 263 251
241 232 239 258 275 283 289 293 295 297 297 294 293 292 288 287 288 288 289 292 301 305 298 290 289 291 298 300 294 291 290 288 285 284 285 289 291 291 289 287 285 285 287 291 296 295 293 295 301 305 306 304 306 310 311 312 314 316 315 314 316 314 306 299 297 292 285 281 278 274 274 274 264 251
234 234 249 272 285 287 291 297 298 299 299 297 296 293 289 289 291 294 296 301 307 301 289 286 291 294 295 294 291 290 289 287 287 291 297 302 302 297 295 293 292 292 293 294 297 297 295 296 303 312 317 316 313 313 313 313 314 316 315 315 317 317 311 304 297 289 283 279 276 275 275 274 262 247
243 254 265 275 281 287 293 297 299 301 301 299 294 288 288 294 297 302 309 306 293 286 285 286 290 292 291 291 290 289 289 291 296 303 306 306 303 301 300 299 297 298 298 296 297 301 302 302 308 316 321 321 319 317 316 315 315 315 313 315 318 319 316 307 297 290 286 283 279 276 273 270 262 247
257 269 271 270 278 288 292 297 304 309 310 311 306 297 298 313 324 320 304 292 286 288 291 289 290 291 292 292 291 292 295 299 304 306 305 304 306 306 306 304 303 302 302 301 301 303 303 305 315 324 324 322 322 321 320 318 316 314 314 317 320 322 322 317 306 297 292 286 281 278 272 265 257 247
254 267 276 281 289 293 294 302 315 320 322 327 329 324 321 328 331 308 288 286 292 299 296 291 292 295 294 295 297 299 302 303 303 303 304 305 307 309 308 308 307 307 306 306 306 305 303 308 322 330 329 326 325 327 329 326 321 318 320 323 323 322 323 322 315 308 302 290 282 279 266 249 243 244
263 281 293 299 302 298 292 301 316 318 316 316 320 324 319 308 299 294 293 297 304 306 301 294 295 297 298 299 301 301 302 302 303 304 306 306 307 310 311 309 307 306 307 309 311 307 305 316 330 337 337 333 331 333 337 337 333 329 328 329 327 323 323 325 322 317 311 296 286 280 252 227 229 242
270 291 299 303 303 291 273 277 292 296 293 288 290 300 302 297 294 295 295 295 294 293 291 294 298 299 300 300 301 303 304 305 305 306 307 308 308 308 308 307 306 307 308 313 317 311 307 321 335 340 341 341 341 341 341 341 341 340 336 334 331 326 326 329 328 324 314 294 286 279 249 229 231 243
265 272 276 279 276 267 265 274 284 285 282 284 287 290 295 297 296 293 291 287 282 282 290 298 300 298 298 300 303 306 307 306 307 308 309 309 308 305 305 306 308 308 308 313 317 315 310 321 335 340 342 347 350 350 349 346 344 344 341 337 334 328 325 328 330 330 320 295 283 279 258 239 235 238
266 260 265 267 264 264 270 279 286 284 282 285 286 287 292 295 293 294 292 278 274 285 296 300 298 295 299 303 305 307 307 307 309 310 310 310 309 306 305 306 307 310 311 313 317 319 316 319 329 336 341 345 348 351 355 355 349 346 343 339 336 332 328 328 331 333 329 314 295 278 258 243 237 235
265 265 267 263 259 266 276 280 282 279 279 282 283 286 292 292 291 293 283 273 281 295 301 299 296 298 301 304 305 307 309 309 309 310 311 311 311 309 309 308 308 310 313 314 317 323 324 324 327 330 334 338 341 344 351 357 354 349 346 343 341 339 335 333 333 331 331 331 323 294 264 247 243 244
258 259 259 257 258 271 277 277 274 273 275 277 277 282 288 287 286 288 282 285 297 308 304 294 298 302 302 305 307 309 310 310 310 311 311 312 313 313 313 313 312 313 315 315 318 323 326 326 327 327 329 333 335 337 346 357 1 357 352 350 348 344 341 339 338 336 331 328 327 314 286 262 251 250
260 263 264 266 269 271 269 269 271 274 275 275 279 289 292 286 285 288 289 294 304 306 296 296 301 301 301 306 308 310 311 312 312 312 312 313 316 316 316 316 316 316 316 316 320 327 328 325 326 329 330 332 334 335 341 352 1 3 1 356 352 348 347 346 346 344 338 323 310 304 292 273 257 250
272 267 262 268 274 268 261 262 266 269 273 276 283 290 291 285 286 291 293 295 295 290 291 298 298 297 303 308 309 310 312 313 313 314 315 315 316 317 318 318 317 317 317 318 324 331 330 325 328 336 337 336 339 340 341 347 356 4 7 5 359 354 354 353 351 349 345 333 314 299 294 288 275 262
265 252 246 257 266 260 254 259 262 264 272 276 276 278 280 280 284 290 291 286 281 282 289 296 296 299 305 308 309 311 313 314 315 316 316 317 317 317 319 318 317 318 320 322 327 332 331 327 330 337 340 340 344 349 351 352 356 3 7 8 4 2 1 359 355 354 352 343 328 311 304 308 306 293
243 250 249 252 255 252 254 260 261 264 272 276 276 282 283 279 280 284 281 273 273 281 290 293 295 300 304 306 310 313 314 315 318 318 318 319 318 319 320 320 320 321 322 324 330 336 337 334 333 336 341 347 351 356 357 357 358 2 6 7 6 5 8 7 2 360 360 355 343 328 315 305 302 303
243 248 251 252 252 254 256 259 263 271 277 277 278 281 279 276 278 286 287 282 284 291 295 292 293 299 304 306 311 314 315 317 319 319 320 320 320 321 323 323 322 324 323 324 330 337 339 339 343 350 351 355 360 2 2 360 358 1 7 10 10 9 12 15 13 9 10 11 5 352 338 320 301 298
242 246 249 250 251 254 257 262 269 275 277 277 278 277 274 272 274 278 280 279 281 284 286 288 292 298 303 307 311 314 316 318 320 320 322 321 320 321 323 324 324 325 324 324 330 335 337 341 351 356 353 356 2 2 1 1 3 5 10 15 16 13 12 16 20 18 20 28 28 21 11 354 323 300
241 246 249 248 249 254 260 266 271 276 279 280 278 273 270 270 268 263 263 267 271 276 280 287 294 299 304 307 311 314 315 317 320 322 321 321 322 322 322 324 326 327 327 328 331 335 341 349 354 351 349 356 4 5 4 6 9 12 16 19 20 18 16 15 17 19 25 37 42 38 35 27 358 314
238 243 247 249 252 256 257 262 270 277 277 273 268 265 264 263 260 258 262 265 267 272 279 287 293 297 301 307 312 315 316 318 322 322 321 321 324 324 324 326 328 329 330 331 332 336 346 357 359 354 352 356 1 5 13 17 16 15 18 21 23 23 20 18 19 19 22 33 42 42 43 44 35 2
Height
1563 1563 1563 1563 1562 1562 1562 1562 1562 1563 1562 1562 1562 1562 1562 1562 1562 1562 1561 1561 1560 1560 1560 1560 1559 1557 1556 1556 1555 1555 1554 1554 1553 1552 1551 1550 1549 1548 1547 1546 1545 1545 1544 1544 1543 1542 1542 1541 1541 1540 1539 1539 1538 1537 1535 1535 1534 1533 1532 1532 1531 1531 1530 1530 1530 1530 1530 1530 1531 1531 1532 1533 1535 1536
1561 1561 1562 1561 1561 1560 1560 1561 1561 1561 1560 1560 1560 1560 1560 1560 1560 1560 1560 1559 1559 1559 1558 1558 1558 1556 1554 1554 1553 1552 1552 1551 1550 1549 1548 1548 1547 1546 1544 1543 1542 1542 1541 1541 1540 1540 1539 1538 1538 1537 1536 1536 1535 1534 1533 1532 1531 1530 1529 1529 1528 1527 1527 1527 1526 1526 1526 1526 1526 1526 1527 1528 1529 1531
1561 1561 1560 1560 1560 1560 1559 1559 1560 1559 1559 1559 1558 1558 1558 1558 1558 1557 1557 1556 1556 1556 1556 1556 1556 1555 1554 1553 1552 1550 1550 1549 1548 1547 1546 1545 1544 1543 1542 1540 1539 1539 1538 1538 1537 1537 1536 1535 1535 1534 1533 1532 1532 1531 1530 1529 1528 1527 1526 1526 1525 1524 1524 1523 1523 1522 1522 1522 1522 1522 1522 1523 1524 1525
1560 1560 1559 1559 1558 1558 1558 1558 1558 1557 1557 1557 1557 1556 1556 1556 1556 1555 1554 1553 1552 1553 1554 1553 1553 1553 1552 1551 1550 1548 1547 1547 1546 1545 1543 1542 1541 1540 1539 1538 1536 1535 1535 1534 1533 1532 1532 1532 1531 1530 1530 1529 1528 1528 1527 1526 1525 1524 1523 1523 1522 1521 1520 1519 1519 1518 1518 1517 1517 1517 1518 1518 1519 1520
1557 1558 1557 1557 1556 1556 1556 1556 1556 1555 1555 1555 1555 1555 1555 1554 1554 1553 1552 1551 1550 1550 1550 1550 1550 1550 1549 1548 1548 1547 1545 1544 1543 1542 1541 1540 1539 1538 1536 1535 1534 1533 1532 1531 1530 1529 1528 1528 1527 1527 1526 1525 1525 1524 1523 1523 1522 1521 1520 1519 1518 1518 1517 1516 1515 1515 1514 1513 1513 1513 1513 1513 1514 1515
1555 1555 1555 1555 1555 1555 1555 1554 1554 1554 1554 1554 1554 1554 1553 1553 1553 1552 1551 1550 1549 1548 1548 1547 1547 1547 1546 1545 1545 1544 1543 1542 1541 1540 1538 1537 1536 1535 1534 1533 1532 1531 1530 1528 1527 1526 1525 1524 1523 1522 1522 1522 1521 1520 1519 1518 1517 1517 1516 1515 1514 1514 1513 1512 1511 1511 1510 1509 1508 1508 1508 1508 1508 1509
1552 1552 1552 1553 1553 1553 1553 1552 1552 1552 1552 1553 1552 1552 1552 1551 1551 1551 1551 1549 1548 1547 1546 1545 1544 1544 1543 1542 1542 1541 1540 1539 1539 1537 1536 1534 1533 1532 1531 1530 1529 1529 1528 1526 1524 1523 1522 1520 1519 1518 1518 1517 1516 1515 1515 1513 1512 1512 1511 1511 1510 1509 1508 1507 1506 1506 1505 1504 1504 1503 1503 1503 1503 1504
1550 1550 1550 1551 1551 1551 1551 1550 1550 1550 1551 1551 1550 1549 1549 1549 1549 1549 1548 1548 1547 1546 1545 1543 1542 1541 1540 1540 1539 1538 1537 1536 1535 1535 1534 1532 1530 1528 1527 1526 1525 1525 1524 1522 1521 1519 1518 1517 1515 1514 1513 1512 1511 1510 1510 1509 1508 1507 1507 1506 1505 1504 1503 1502 1501 1501 1500 1499 1498 1498 1497 1497 1497 1498
1548 1548 1549 1549 1549 1549 1549 1549 1549 1550 1550 1549 1549 1548 1548 1548 1547 1547 1546 1546 1546 1545 1543 1541 1540 1539 1538 1537 1536 1535 1534 1533 1532 1531 1531 1530 1528 1526 1524 1523 1523 1522 1520 1519 1517 1515 1514 1512 1511 1510 1509 1507 1506 1505 1504 1504 1503 1502 1501 1500 1500 1499 1498 1497 1496 1495 1495 1494 1494 1493 1492 1492 1491 1492
1545 1546 1546 1547 1548 1548 1547 1548 1548 1548 1548 1548 1547 1547 1547 1546 1546 1545 1544 1544 1543 1542 1540 1539 1537 1536 1535 1534 1533 1532 1531 1530 1529 1528 1527 1526 1524 1522 1521 1520 1519 1518 1517 1515 1513 1512 1510 1509 1507 1506 1504 1503 1501 1500 1499 1499 1498 1497 1496 1495 1494 1493 1493 1492 1491 1490 1490 1489 1489 1488 1488 1487 1486 1486
1543 1543 1544 1545 1546 1546 1546 1546 1546 1546 1546 1546 1545 1545 1544 1544 1544 1543 1542 1542 1541 1540 1538 1536 1535 1534 1533 1532 1530 1528 1528 1527 1526 1526 1524 1522 1520 1519 1518 1517 1516 1515 1514 1512 1510 1508 1506 1505 1503 1502 1500 1499 1497 1496 1494 1493 1492 1491 1490 1489 1488 1488 1487 1487 1486 1486 1485 1484 1484 1483 1483 1482 1481 1481
1541 1541 1543 1543 1544 1544 1544 1543 1543 1543 1543 1542 1542 1543 1542 1542 1542 1541 1540 1540 1539 1537 1536 1534 1533 1532 1531 1529 1527 1525 1525 1524 1524 1524 1522 1519 1517 1516 1515 1514 1513 1511 1510 1508 1506 1505 1503 1501 1500 1498 1496 1495 1493 1491 1490 1488 1487 1485 1484 1484 1483 1483 1483 1482 1482 1481 1480 1479 1478 1477 1477 1476 1475 1475
1538 1539 1540 1541 1541 1541 1541 1541 1541 1541 1541 1540 1540 1540 1540 1540 1539 1539 1538 1537 1536 1535 1533 1532 1530 1529 1528 1526 1525 1523 1522 1522 1521 1521 1519 1516 1514 1512 1511 1510 1509 1508 1506 1504 1503 1501 1500 1498 1496 1494 1492 1490 1489 1487 1485 1483 1482 1481 1480 1479 1479 1478 1477 1477 1477 1476 1475 1473 1472 1471 1470 1469 1468 1468
1536 1537 1538 1538 1538 1538 1538 1539 1539 1539 1539 1538 1538 1538 1538 1538 1537 1536 1535 1535 1533 1532 1530 1529 1527 1526 1525 1524 1523 1521 1520 1520 1519 1518 1516 1513 1511 1509 1507 1505 1505 1505 1503 1501 1499 1497 1496 1494 1492 1489 1487 1485 1484 1482 1480 1479 1478 1477 1477 1475 1474 1473 1472 1471 1471 1470 1468 1467 1465 1463 1462 1461 1461 1460
1534 1535 1535 1535 1535 1535 1535 1536 1536 1535 1535 1535 1535 1535 1534 1534 1533 1532 1531 1530 1529 1528 1526 1525 1525 1523 1522 1521 1520 1518 1517 1517 1516 1514 1513 1510 1508 1506 1504 1502 1501 1501 1501 1498 1494 1492 1492 1491 1488 1485 1483 1480 1479 1477 1476 1475 1474 1472 1471 1470 1469 1468 1466 1465 1464 1462 1461 1458 1456 1455 1453 1453 1453 1453
1531 1532 1532 1532 1532 1532 1532 1532 1532 1532 1531 1531 1531 1531 1530 1530 1529 1528 1527 1526 1525 1524 1523 1522 1521 1520 1519 1518 1517 1515 1514 1513 1513 1511 1509 1507 1505 1503 1501 1499 1497 1497 1497 1495 1490 1487 1487 1487 1484 1481 1479 1477 1474 1473 1471 1470 1469 1467 1466 1465 1463 1462 1460 1459 1456 1454 1452 1449 1447 1446 1445 1444 1445 1445
1528 1529 1529 1529 1529 1529 1529 1530 1529 1528 1528 1528 1527 1527 1526 1525 1525 1524 1524 1523 1522 1521 1520 1518 1517 1516 1516 1514 1513 1513 1512 1510 1509 1507 1506 1504 1502 1500 1498 1496 1494 1493 1493 1491 1487 1482 1482 1483 1480 1477 1475 1473 1471 1469 1467 1465 1463 1462 1461 1459 1457 1455 1453 1451 1448 1445 1443 1440 1439 1437 1436 1436 1436 1437
1525 1526 1526 1526 1526 1526 1526 1526 1526 1526 1525 1525 1524 1523 1522 1521 1521 1521 1521 1520 1519 1518 1516 1514 1513 1513 1512 1511 1509 1509 1509 1507 1505 1503 1502 1500 1498 1496 1494 1492 1490 1489 1488 1487 1484 1478 1477 1479 1476 1473 1471 1469 1466 1464 1462 1460 1458 1456 1454 1452 1450 1447 1445 1442 1438 1436 1434 1432 1430 1429 1428 1428 1428 1428
1523 1523 1523 1523 1523 1523 1523 1523 1524 1523 1522 1521 1520 1519 1519 1518 1518 1517 1516 1516 1515 1514 1512 1511 1510 1510 1509 1507 1506 1505 1504 1503 1501 1500 1498 1496 1495 1492 1490 1489 1487 1485 1484 1485 1482 1476 1474 1476 1473 1469 1467 1465 1462 1459 1456 1453 1452 1449 1447 1445 1443 1440 1436 1433 1430 1428 1425 1423 1422 1421 1420 1420 1420 1420
1519 1519 1520 1520 1521 1521 1521 1521 1521 1520 1519 1518 1516 1515 1515 1515 1514 1513 1512 1512 1511 1510 1509 1508 1507 1506 1505 1503 1502 1501 1500 1499 1498 1496 1494 1493 1492 1490 1488 1485 1484 1483 1482 1482 1479 1474 1471 1472 1469 1465 1463 1461 1457 1453 1451 1447 1445 1443 1441 1438 1435 1432 1428 1424 1422 1419 1417 1416 1415 1414 1413 1413 1413 1413
1517 1517 1518 1518 1518 1518 1519 1519 1519 1518 1516 1515 1513 1513 1512 1512 1511 1510 1509 1509 1508 1507 1505 1504 1503 1502 1500 1499 1498 1497 1496 1495 1494 1493 1491 1490 1489 1488 1485 1482 1481 1480 1478 1478 1477 1472 1469 1468 1466 1461 1459 1457 1452 1447 1444 1442 1440 1438 1435 1431 1427 1423 1419 1416 1413 1411 1409 1409 1408 1407 1406 1406 1406 1406
1515 1515 1515 1515 1515 1515 1515 1516 1516 1515 1513 1512 1511 1510 1510 1509 1508 1508 1507 1506 1505 1503 1501 1500 1499 1497 1496 1495 1493 1493 1492 1492 1492 1490 1488 1487 1486 1485 1482 1480 1478 1476 1475 1474 1473 1470 1466 1465 1463 1458 1454 1450 1447 1443 1439 1437 1434 1431 1427 1423 1419 1416 1412 1408 1405 1403 1401 1401 1400 1400 1399 1400 1400 1400
1512 1511 1511 1511 1511 1512 1512 1513 1513 1512 1511 1510 1509 1508 1507 1507 1506 1505 1504 1503 1501 1500 1498 1496 1495 1493 1492 1491 1490 1489 1489 1489 1489 1487 1485 1484 1483 1481 1480 1478 1476 1473 1470 1471 1471 1467 1463 1462 1460 1457 1451 1444 1440 1437 1434 1430 1427 1424 1420 1415 1411 1407 1404 1400 1397 1395 1394 1393 1393 1392 1392 1393 1394 1394
1508 1507 1507 1508 1509 1510 1510 1511 1510 1509 1508 1507 1506 1506 1505 1504 1503 1502 1501 1499 1498 1496 1495 1493 1491 1490 1489 1488 1488 1488 1487 1487 1486 1485 1483 1482 1481 1479 1477 1475 1473 1470 1467 1468 1468 1464 1461 1458 1455 1453 1450 1442 1435 1431 1428 1424 1420 1417 1414 1409 1404 1399 1395 1393 1390 1388 1387 1386 1386 1386 1386 1387 1388 1387
1504 1504 1504 1505 1506 1507 1508 1508 1507 1506 1505 1504 1503 1503 1502 1501 1499 1498 1497 1495 1494 1492 1491 1490 1489 1488 1487 1487 1486 1486 1486 1485 1484 1483 1482 1480 1479 1477 1474 1472 1470 1466 1464 1464 1464 1461 1458 1455 1451 1448 1445 1440 1434 1429 1423 1417 1414 1412 1408 1404 1398 1393 1389 1387 1384 1382 1382 1380 1380 1380 1380 1380 1381 1381
1502 1502 1501 1502 1504 1505 1505 1505 1504 1503 1502 1501 1500 1500 1498 1497 1496 1495 1493 1492 1490 1489 1488 1488 1487 1486 1485 1485 1484 1484 1484 1483 1481 1480 1478 1477 1475 1473 1471 1468 1466 1463 1460 1459 1460 1458 1455 1451 1448 1444 1441 1436 1431 1426 1419 1411 1407 1404 1401 1397 1393 1388 1384 1381 1379 1376 1375 1374 1373 1373 1374 1374 1374 1374
1500 1500 1499 1500 1501 1502 1502 1501 1501 1500 1499 1498 1498 1497 1495 1494 1493 1492 1490 1489 1488 1487 1487 1486 1485 1484 1483 1482 1482 1481 1480 1479 1478 1476 1474 1471 1469 1467 1466 1464 1462 1460 1457 1456 1455 1455 1452 1448 1445 1442 1439 1434 1428 1422 1415 1408 1402 1398 1393 1389 1386 1383 1379 1376 1373 1371 1369 1369 1368 1367 1367 1367 1367 1368
1498 1497 1497 1498 1498 1499 1498 1498 1498 1497 1496 1495 1495 1494 1493 1492 1491 1489 1488 1487 1486 1486 1485 1484 1483 1482 1481 1480 1479 1478 1477 1475 1473 1471 1469 1467 1465 1464 1462 1461 1459 1457 1455 1454 1452 1451 1449 1446 1442 1440 1437 1432 1426 1418 1411 1404 1399 1395 1389 1383 1379 1377 1374 1372 1369 1367 1365 1364 1363 1363 1361 1360 1361 1363
1495 1495 1495 1496 1496 1496 1496 1495 1495 1494 1493 1493 1492 1491 1490 1489 1488 1487 1486 1486 1485 1484 1483 1482 1481 1480 1479 1478 1477 1476 1474 1472 1469 1467 1466 1464 1463 1461 1460 1458 1456 1454 1453 1452 1450 1448 1446 1443 1440 1437 1433 1429 1423 1417 1409 1402 1395 1392 1388 1382 1376 1372 1370 1368 1366 1363 1362 1360 1359 1358 1356 1355 1355 1357
1493 1493 1493 1493 1494 1493 1493 1493 1492 1491 1491 1491 1490 1489 1488 1487 1486 1485 1486 1485 1484 1482 1481 1480 1479 1478 1477 1476 1474 1472 1470 1469 1467 1466 1464 1462 1461 1459 1458 1455 1454 1452 1451 1450 1447 1445 1443 1441 1438 1435 1430 1426 1421 1415 1409 1401 1393 1388 1386 1382 1375 1369 1366 1363 1361 1359 1358 1356 1354 1354 1352 1350 1350 1351
1491 1491 1492 1491 1491 1491 1490 1490 1490 1489 1489 1488 1488 1487 1486 1486 1485 1485 1485 1484 1482 1480 1479 1478 1477 1476 1475 1473 1472 1470 1469 1468 1466 1465 1463 1461 1459 1457 1456 1454 1452 1450 1448 1447 1445 1443 1441 1439 1436 1433 1428 1423 1418 1413 1407 1400 1392 1386 1382 1379 1374 1369 1364 1360 1357 1355 1353 1351 1350 1348 1347 1346 1346 1346
1489 1490 1489 1489 1488 1488 1488 1488 1488 1487 1486 1486 1486 1485 1485 1485 1485 1485 1483 1482 1480 1478 1477 1476 1475 1474 1473 1471 1470 1469 1468 1466 1465 1463 1461 1459 1457 1456 1454 1453 1451 1449 1446 1444 1442 1441 1439 1437 1434 1431 1427 1422 1416 1410 1404 1398 1392 1386 1380 1376 1372 1367 1363 1359 1354 1351 1349 1348 1346 1345 1344 1344 1343 1343
1487 1487 1487 1487 1486 1486 1486 1486 1486 1485 1485 1484 1485 1485 1485 1484 1484 1484 1482 1481 1479 1478 1477 1475 1474 1472 1471 1470 1469 1468 1466 1465 1463 1462 1460 1458 1456 1455 1453 1452 1450 1447 1444 1442 1440 1438 1436 1434 1432 1428 1425 1420 1415 1409 1403 1396 1390 1385 1380 1375 1370 1365 1360 1356 1352 1348 1346 1345 1343 1342 1342 1342 1341 1341
1486 1486 1486 1487 1486 1486 1486 1486 1485 1485 1485 1485 1485 1485 1485 1484 1483 1482 1481 1480 1478 1477 1475 1474 1472 1471 1470 1469 1467 1466 1465 1463 1462 1460 1459 1457 1455 1454 1452 1450 1448 1446 1443 1440 1438 1435 1433 1431 1428 1425 1421 1417 1412 1408 1403 1396 1389 1384 1379 1374 1369 1364 1359 1354 1350 1347 1344 1342 1341 1340 1339 1339 1339 1339
1485 1485 1486 1486 1485 1485 1485 1485 1484 1484 1484 1484 1484 1483 1483 1483 1481 1481 1480 1478 1476 1475 1473 1472 1471 1470 1469 1468 1466 1465 1464 1462 1460 1459 1457 1456 1455 1453 1451 1449 1447 1444 1442 1439 1436 1433 1431 1428 1424 1421 1417 1412 1407 1403 1400 1395 1389 1383 1378 1373 1368 1363 1357 1352 1348 1345 1342 1339 1338 1338 1337 1336 1337 1337
1483 1483 1484 1484 1483 1483 1483 1483 1483 1483 1482 1482 1482 1481 1481 1481 1480 1479 1478 1475 1474 1472 1471 1470 1469 1468 1467 1466 1465 1464 1462 1461 1459 1458 1456 1455 1453 1452 1450 1448 1445 1443 1440 1437 1435 1432 1429 1426 1423 1420 1415 1410 1405 1401 1396 1393 1389 1383 1377 1372 1367 1361 1356 1351 1346 1343 1340 1338 1336 1336 1336 1335 1335 1335
1481 1481 1482 1481 1481 1481 1481 1481 1481 1481 1481 1480 1480 1479 1479 1479 1479 1478 1475 1473 1471 1470 1469 1469 1468 1467 1466 1465 1464 1463 1461 1460 1459 1457 1455 1454 1452 1450 1448 1446 1444 1442 1439 1436 1434 1431 1428 1425 1422 1420 1415 1411 1406 1400 1395 1391 1388 1384 1378 1372 1366 1361 1356 1350 1345 1342 1339 1338 1336 1335 1335 1334 1334 1334
1478 1478 1478 1479 1479 1479 1479 1479 1479 1479 1479 1479 1478 1477 1477 1477 1476 1476 1474 1471 1470 1470 1469 1468 1467 1466 1465 1464 1463 1462 1460 1459 1458 1456 1454 1453 1451 1449 1447 1445 1443 1440 1438 1435 1432 1430 1427 1424 1420 1418 1415 1411 1406 1401 1395 1390 1386 1383 1379 1374 1368 1362 1357 1352 1347 1342 1339 1336 1335 1335 1334 1332 1331 1331
1475 1475 1476 1477 1477 1477 1477 1478 1477 1477 1477 1477 1476 1476 1476 1476 1475 1473 1472 1471 1470 1468 1467 1467 1466 1465 1464 1463 1462 1461 1460 1458 1457 1455 1453 1452 1450 1448 1446 1444 1441 1439 1436 1433 1431 1428 1426 1422 1419 1416 1414 1411 1407 1402 1398 1392 1387 1383 1379 1375 1369 1363 1357 1353 1349 1344 1339 1335 1333 1331 1330 1329 1328 1328
1473 1474 1474 1475 1476 1476 1476 1476 1476 1475 1476 1475 1473 1473 1475 1474 1473 1471 1470 1469 1468 1467 1466 1465 1465 1464 1463 1462 1461 1460 1458 1457 1456 1454 1452 1450 1448 1447 1445 1443 1440 1438 1435 1432 1430 1427 1424 1420 1417 1415 1413 1410 1407 1403 1399 1394 1389 1384 1379 1375 1371 1365 1359 1354 1350 1346 1341 1336 1333 1330 1329 1327 1325 1325
1473 1473 1473 1474 1474 1474 1474 1474 1474 1474 1474 1473 1471 1472 1473 1472 1470 1469 1468 1467 1466 1465 1464 1464 1464 1463 1462 1461 1460 1459 1457 1456 1454 1453 1451 1449 1447 1445 1444 1441 1439 1437 1434 1431 1429 1426 1423 1419 1416 1414 1412 1410 1406 1402 1398 1393 1388 1382 1378 1374 1370 1366 1361 1356 1352 1349 1345 1340 1335 1331 1329 1327 1325 1323
1472 1472 1472 1472 1472 1472 1473 1473 1473 1472 1472 1470 1469 1470 1471 1470 1467 1466 1466 1465 1464 1464 1463 1463 1463 1462 1461 1460 1459 1458 1456 1455 1453 1451 1450 1448 1446 1444 1442 1440 1438 1436 1434 1431 1428 1425 1422 1419 1416 1414 1412 1409 1406 1402 1397 1393 1388 1383 1378 1374 1370 1366 1362 1358 1354 1351 1348 1344 1339 1334 1330 1328 1325 1323
1470 1470 1471 1471 1471 1471 1471 1471 1471 1470 1469 1469 1469 1469 1468 1467 1466 1465 1465 1464 1464 1463 1463 1463 1462 1461 1460 1459 1458 1456 1455 1454 1452 1450 1448 1447 1445 1443 1441 1439 1438 1435 1433 1430 1428 1425 1422 1419 1416 1414 1412 1409 1405 1402 1398 1394 1390 1385 1380 1375 1370 1366 1362 1358 1355 1353 1350 1346 1342 1338 1334 1330 1326 1323
1468 1469 1469 1469 1469 1469 1469 1469 1468 1468 1467 1468 1467 1467 1465 1464 1464 1464 1464 1464 1463 1463 1462 1461 1461 1459 1458 1457 1456 1455 1454 1452 1450 1449 1447 1446 1444 1442 1440 1438 1437 1435 1432 1430 1427 1424 1422 1418 1415 1413 1411 1408 1405 1403 1399 1395 1391 1386 1382 1377 1372 1367 1362 1358 1354 1352 1350 1346 1342 1339 1335 1331 1326 1321
1467 1467 1467 1468 1468 1467 1467 1467 1466 1466 1466 1466 1464 1464 1463 1463 1463 1463 1463 1462 1462 1461 1461 1460 1459 1458 1457 1456 1454 1453 1452 1451 1449 1448 1447 1445 1443 1442 1440 1438 1436 1434 1432 1429 1427 1424 1421 1419 1416 1413 1410 1408 1406 1404 1400 1396 1392 1388 1383 1378 1373 1369 1365 1360 1355 1352 1350 1346 1342 1338 1334 1330 1325 1320